Location: Alphen
(52.1351°N, 4.6549°E)
Time: 02:02:05
(UTC+00:00)

Nadezhda 4 Rocket - Pass Details

Date: 27 January 2021
Orbit: 949 x 993 km, 82.9° (Epoch: 26 February)

Event Time Altitude Azimuth Distance (km) Brightness Sun altitude
Rises 04:38:33 0° 348° (NNW) 3,640 6.9 -26.0°
Reaches altitude 10° 04:41:03 10° 347° (NNW) 2,688 6.2 -25.6°
Maximum altitude 04:47:10 74° 264° (W) 990 3.8 -24.6°
Drops below altitude 10° 04:53:14 10° 180° (S) 2,671 6.3 -23.7°
Sets 04:55:43 0° 179° (S) 3,615 7.0 -23.3°
